HADT,Max TemperatureF,Mean TemperatureF,Min TemperatureF,Max Dew PointF,MeanDew PointF,Min DewpointF,Max Humidity, Mean Humidity, Min Humidity, Max Sea Level PressureIn, Mean Sea Level PressureIn, Min Sea Level PressureIn, Max VisibilityMiles, Mean VisibilityMiles, Min VisibilityMiles, Max Wind SpeedMPH, Mean Wind SpeedMPH, Max Gust SpeedMPH,PrecipitationIn, CloudCover, Events, WindDirDegrees
2013-3-1,37,32,28,36,31,12,93,88,41,29.62,28.94,28.70,10,4,0,52,22,68,0.08,8,,58
2013-3-2,55,38,21,28,22,16,93,77,56,30.11,29.74,29.05,10,5,0,54,34,77,0.16,7,,323
2013-3-3,39,29,19,36,29,14,93,84,72,30.09,29.70,29.44,10,7,1,39,16,51,0.51,7,,196
2013-3-4,37,34,30,30,28,25,87,75,65,29.55,29.50,29.44,10,9,2,30,20,41,0.12,5,,230
2013-3-5,35,30,23,28,25,19,93,78,60,29.59,29.56,29.53,10,9,0,29,17,34,0.28,4,,232
2013-3-6,33,24,15,27,21,12,100,80,60,29.52,29.44,29.39,10,9,2,23,7,30,0.28,4,,321
2013-3-7,33,27,21,27,20,16,80,66,47,29.70,29.54,29.41,10,9,2,29,14,33,0.43,6,,301
2013-3-8,36,30,24,30,26,18,93,77,52,29.99,29.88,29.70,10,10,5,24,11,33,0.12,7,,245
2013-3-9,39,34,30,34,31,28,81,76,67,30.25,30.06,29.96,10,10,8,33,22,45,0.08,7,,207
2013-3-10,42,40,37,36,33,28,87,79,61,30.42,30.31,30.23,10,10,5,33,20,45,0.01,8,,182
2013-3-11,42,40,37,37,36,34,93,86,74,30.49,30.45,30.41,10,8,4,25,19,32,0.00,7,,187
2013-3-12,37,36,35,32,30,28,81,79,65,30.44,30.32,30.17,10,10,10,22,14,28,0.00,7,,181
2013-3-13,37,35,33,36,33,30,100,88,72,30.18,30.13,30.09,10,9,4,25,8,34,0.02,8,,334
2013-3-14,41,36,33,37,30,25,93,80,61,30.18,30.08,29.80,10,10,4,23,12,31,0.08,8,,268
2013-3-15,41,34,28,37,29,23,93,75,60,29.97,29.82,29.71,10,9,4,43,19,50,0.08,7,,272
2013-3-16,41,34,26,27,25,21,93,69,52,30.19,30.08,29.97,10,10,10,21,6,26,0.12,6,,227
2013-3-17,39,32,24,36,28,19,93,77,58,30.21,30.10,29.93,10,9,3,32,13,39,0.12,2,,67
2013-3-18,43,40,37,39,37,36,93,88,74,30.11,29.95,29.85,10,5,2,36,27,43,1.10,8,,86
2013-3-19,39,38,37,36,35,34,93,87,81,30.19,30.16,30.11,10,8,3,28,21,36,0.08,8,,104
2013-3-20,39,37,35,34,32,28,93,80,67,30.16,30.09,30.03,10,10,9,22,14,30,0.31,8,,150
2013-3-21,39,37,35,36,34,32,93,87,81,30.02,29.89,29.73,10,10,5,21,10,30,0.39,8,,195
2013-3-22,41,38,35,36,33,28,93,83,65,29.87,29.71,29.57,10,9,3,34,21,41,0.02,7,,232
2013-3-23,42,38,33,34,30,27,87,72,55,30.29,30.11,29.88,10,9,3,36,22,46,0.08,6,,285
2013-3-24,39,32,24,36,29,23,93,84,68,30.30,30.12,29.77,10,9,5,20,6,29,0.12,7,,163
2013-3-25,44,35,26,37,36,34,93,88,74,29.75,29.64,29.58,10,9,1,18,10,24,0.83,8,,256
2013-3-26,41,37,33,37,34,30,93,88,75,29.74,29.48,29.26,10,8,2,31,10,38,0.16,8,,192
2013-3-27,39,36,33,34,30,27,93,81,58,29.35,29.16,28.96,10,9,1,23,15,37,0.71,7,,187
2013-3-28,39,36,32,34,29,23,100,78,60,29.83,29.40,29.01,10,9,1,32,13,43,0.01,7,,327
2013-3-29,37,34,30,27,25,23,86,73,58,30.26,30.11,29.84,10,9,3,24,15,34,0.55,7,,337
2013-3-30,39,36,33,34,30,25,93,79,65,30.26,30.07,29.80,10,9,5,28,13,38,0.31,8,,187
2013-3-31,39,36,32,37,30,23,93,78,65,29.94,29.71,29.51,10,8,0,36,25,45,0.39,7,,250